Regional Weather Roundup
Issued by NWS

Home | Current Version | Previous Version | Text Only | Print | Product List | Glossary On
Versions: 1 2 3 4 5 6 7 8 9 10 11 12 13 14 15 16 17 18 19 20 21 22 23 24 25 26 27 28 29 30 31 32 33 34 35 36 37 38 39 40 41 42 43 44 45 46 47 48 49 50
000
ASUS44 KMEG 070410
RWRTN
TENNESSEE HOURLY STATE WEATHER ROUNDUP
NATIONAL WEATHER SERVICE MEMPHIS TN
1000 PM CST SAT FEB 06 2016

TNZ002-004-019-021-049-052-054-088>092-070500-
WEST TENNESSEE

CITY           SKY/WX    TMP DP  RH WIND       PRES   REMARKS
MEMPHIS INTL   CLEAR     37  24  59 CALM      30.31S
NWS MEMPHIS      N/A     34 N/A N/A MISG        N/A
JACKSON        CLEAR     30  24  78 S5        30.30S WCI  25
DYERSBURG      CLEAR     37  23  56 CALM      30.32S
UNION CITY     CLEAR     34  25  69 CALM      30.28S
PARIS          CLEAR     30  21  69 SW3       30.29S
LEXINGTON      CLEAR     28  23  80 CALM      30.28S
$$

TNZ008-025-027-028-033-062-065-066-070500-
NORTH MIDDLE TENNESSEE

CITY           SKY/WX    TMP DP  RH WIND       PRES   REMARKS
NASHVILLE      CLEAR     36  24  62 S5        30.29S WCI  32
CLARKSVILLE    CLEAR     35  25  66 CALM      30.28S
SMYRNA         CLEAR     31  25  78 CALM      30.31S
COOKEVILLE     CLEAR     27  25  93 CALM      30.27R
CROSSVILLE     PTCLDY    34  21  59 CALM      30.25F
$$

TNZ061-075-076-078-094-096-097-070500-
SOUTH MIDDLE TENNESSEE

CITY           SKY/WX    TMP DP  RH WIND       PRES   REMARKS
FAYETTEVILLE   PTCLDY    37  30  75 CALM      30.28S
TULLAHOMA      CLEAR     30  27  86 CALM      30.27F
WINCHESTER     CLEAR     32  27  80 CALM      30.29R
MCMINNVILLE    CLEAR     32  27  80 CALM      30.27S
COLUMBIA       CLEAR     32  30  93 CALM      30.28R
SHELBYVILLE    CLEAR     30  28  93 E3        30.29F
$$

TNZ017-018-042-046-047-070500-
NORTHEAST TENNESSEE

CITY           SKY/WX    TMP DP  RH WIND       PRES   REMARKS
TRI CITIES     PTCLDY    28  22  78 CALM      30.25F
$$

TNZ012-013-036-069-073-074-070500-
CENTRAL EAST TENNESSEE

CITY           SKY/WX    TMP DP  RH WIND       PRES   REMARKS
KNOXVILLE      CLOUDY    37  22  54 CALM      30.26F
OAK RIDGE      CLOUDY    36  27  69 CALM      30.28F
GATLINBURG       N/A     27  19  74 CALM      30.26S
MORRISTOWN     PTCLDY    34  23  64 CALM      30.25S
$$

TNZ083-085-099-070500-
SOUTHEAST TENNESSEE

CITY           SKY/WX    TMP DP  RH WIND       PRES   REMARKS
CHATTANOOGA    MOCLDY    37  22  54 CALM      30.28R
$$

SKY/WX REPORTED AS FAIR MEANS FEW OR NO CLOUDS BELOW
12 THOUSAND FEET.




USA.gov is the U.S. government's official web portal to all federal, state and local government web resources and services.